Vertical_Velocity
3 -3 0 -0 -7 -1 9 -3 -8 1 0 -0 4 -0 1 2 3 5 1 -0 -3 12 1 -1 1 3 -5 1 -1 -2 1 1 -2 -0 -3 0 -6 1 -3 -2 -2 -2 -2 -4 1 -3 -4 -4 -4
-1 -3 -0 -2 -3 6 2 -2 -3 -4 -4 1 -3 1 3 -1 1 7 7 1 12 -1 -3 -0 2 3 -1 -2 -0 2 -0 -2 -0 -2 3 0 -2 2 2 -2 -0 -1 -1 -1 -0 -1 -1 -5 2
0 -3 -3 1 -0 7 -2 3 -6 -0 6 8 6 -2 5 -7 3 29 4 3 1 -1 -0 1 0 0 0 -1 -1 2 -0 -1 -0 -1 -3 -1 1 1 -2 -5 -3 -1 -2 -2 -1 -2 -4 -2 1
1 -2 -1 -2 5 -2 -1 -2 2 4 9 -9 7 9 25 3 18 -2 -2 -1 -6 -4 6 -1 2 1 3 -0 1 -1 -1 0 1 3 -1 -1 -1 -4 -3 -2 -3 -2 -0 2 2 0 -2 -3 0
1 -3 -2 0 -1 2 1 2 -5 4 7 23 3 5 5 2 15 -1 -3 -2 -1 1 1 -1 4 3 6 -4 -0 2 2 2 -1 -2 0 -1 -2 1 -2 1 -3 1 -4 -3 -4 -1 -2 -4 0
-2 3 1 1 0 5 2 -2 -5 2 18 10 3 -2 -4 -5 -5 0 -3 1 11 -2 -1 5 -0 3 3 3 1 7 3 2 0 -0 -0 2 -2 -2 -3 -0 -1 -4 1 -5 0 -3 1 -6 -9
2 1 -0 -4 2 2 -2 -1 1 18 -9 11 3 0 -9 -3 -8 3 4 -2 -1 5 3 4 1 2 2 3 2 1 4 1 -1 1 0 -2 -2 -4 -2 -1 -2 -3 2 -4 -1 -3 0 0 -4
0 -1 4 -4 2 1 2 5 33 7 12 -0 0 4 -13 -4 0 2 1 5 -1 4 0 2 1 3 5 1 2 1 2 1 1 -2 2 -2 -2 -4 3 -3 -3 2 -3 -2 -6 0 -2 -0 -3
1 2 1 -2 -2 17 0 6 -6 3 4 -1 1 -3 -4 0 2 -0 5 1 7 -1 4 0 6 4 2 0 -2 0 1 -3 -1 -2 -2 -2 -2 -1 -2 -1 0 -0 -6 -4 -1 -2 -2 -2 -2
2 4 1 -4 7 30 12 14 4 -9 2 -2 3 -0 0 1 -2 0 4 3 2 2 -0 4 1 1 -0 6 -0 -0 4 -1 3 -0 2 -3 1 0 -4 -3 -1 1 -6 -1 -1 -3 -3 -1 -2
0 -1 7 -6 -2 6 -4 3 3 -2 1 4 -2 3 3 2 -1 2 3 -1 5 0 -0 -3 3 1 -7 -1 -1 -3 6 -3 -2 6 -2 2 -3 1 -0 -1 -2 3 -3 0 1 0 -2 -2 -1
3 2 5 0 -3 0 -1 5 -4 3 3 -1 -4 2 3 2 -4 0 2 3 1 -3 -1 -1 1 -1 2 -2 2 2 1 0 -0 1 1 -3 -5 -1 -3 3 -6 1 2 1 -1 -1 0 1 1
-1 4 4 -2 -6 -10 1 3 0 -1 -2 -1 -3 0 2 -1 1 2 2 -1 -1 5 -6 4 2 2 4 -1 2 -4 4 -2 3 4 -1 -1 2 -0 2 -1 -0 1 1 -1 -1 0 -1 0 -0
0 2 2 -5 -2 1 -1 3 2 1 1 -1 1 2 8 5 4 2 5 -3 6 0 -1 4 0 3 3 -5 0 2 1 3 6 14 15 4 14 -1 -2 -1 1 1 -2 -3 -1 1 1 2 0
5 1 -0 2 -5 3 -0 -1 -0 -0 -4 2 -0 -1 1 2 0 -2 1 3 3 -1 1 2 4 5 2 2 -0 6 17 19 3 12 14 15 7 -1 -3 -0 -0 1 -2 -2 -3 -2 1 3 1
4 -3 1 2 4 6 -1 1 1 -1 3 -2 2 0 -1 1 0 -1 -1 1 -0 2 2 -1 -1 0 8 6 -1 -1 36 -2 -7 -13 -3 0 -1 2 1 -2 -0 -2 -4 -3 -0 -0 -2 -2 -2
-3 1 3 -0 2 4 6 6 2 -0 3 1 0 -0 1 -3 -1 5 0 -0 -2 -1 2 -3 3 6 15 10 109 9 -7 -2 -1 6 1 -0 2 1 -0 -2 -3 -1 1 -0 -1 -3 -2 -2 -1
3 1 1 2 2 3 4 2 1 1 0 1 -1 -0 0 2 0 1 0 2 5 -1 0 3 5 7 6 2 3 0 -3 -1 3 1 -2 -1 -1 -3 -1 -0 -2 -0 -2 -3 -4 -2 -4 -4 -2
1 1 0 3 3 2 2 1 3 -1 1 0 -2 -2 -2 1 0 2 -1 3 3 1 -2 -2 -3 -2 -1 -1 -1 -2 -2 1 3 4 6 4 3 2 -0 -1 -2 -1 2 3 0 -3 -3 -8 -6
2 1 2 3 0 -0 2 0 -1 2 0 -1 1 1 0 -2 -2 1 0 -1 -1 -4 -5 -1 1 -1 -2 -2 -3 1 0 1 -1 0 0 0 1 1 -0 -2 -2 -3 -4 -2 -5 -7 -11 -6 -2
0 1 -0 1 -2 2 2 2 -1 1 2 1 1 0 -1 -1 -1 -1 -0 2 1 3 2 -2 -4 -3 -4 -5 -3 -6 -3 -1 3 2 0 -1 -1 -2 -3 -4 -6 -6 -4 -3 -2 1 4 -3 -4
-2 -1 -1 2 0 -1 -0 -1 -2 1 3 1 -1 -1 -2 -1 1 -1 -2 -2 -1 -1 0 1 -1 -0 -1 -1 -0 -0 -3 -4 -5 -6 -7 -5 -3 -3 1 5 3 4 3 4 6 5 6 7 1
-3 1 4 -0 -8 -5 -5 -6 -0 1 3 1 1 -0 0 1 -1 -2 -2 -2 -1 -2 -2 -3 -2 -0 -4 -5 -5 -3 -1 0 2 3 2 4 5 5 4 4 6 7 3 2 2 -1 -0 -2 -5
1 -1 -2 -1 -2 -8 -2 -2 2 3 -0 1 -1 0 1 -0 -2 -3 -5 -2 -6 -5 -1 -0 -4 -4 -2 1 2 1 2 3 3 2 1 -0 -1 0 1 1 1 0 -2 1 0 -3 -5 -9 -6
-0 1 0 -4 -4 -1 4 -5 7 2 -0 -1 -2 0 -1 -0 1 -1 -4 -1 -0 -1 -2 -2 -1 -2 -1 -0 2 3 3 1 -1 1 3 2 2 2 -2 2 2 -2 -1 -5 -8 -3 -4 -4 -3
0 -0 -2 -3 -2 1 1 -1 5 1 -1 -0 -0 0 -0 0 -1 0 1 0 0 -0 -1 -1 -1 -1 1 2 2 4 3 3 2 1 -2 -2 -4 -1 -2 -4 -5 -6 -6 -7 -4 -9 -6 -3 -7
0 -1 1 0 -0 -0 1 2 -0 -0 -2 -3 -4 -2 -0 0 1 1 0 -0 -2 -2 -1 -2 -1 -1 0 -0 0 -1 -1 -2 -3 -2 -4 -3 -4 -3 -5 -2 -3 -2 -4 -2 -5 -5 -3 -4 -2
0 1 0 -0 -3 -2 1 1 -1 -1 -2 -2 -1 -0 -1 -1 -0 -1 -2 -1 -2 -2 -2 -1 -0 0 -2 -2 -1 -2 -3 -3 -2 -3 -1 -1 -3 -4 -2 -1 -0 -2 -1 -3 -1 -2 -1 -1 -2
0 0 -1 -1 -1 -2 -0 1 -1 -1 1 -0 -1 -1 0 -0 -1 0 1 1 1 2 1 -1 2 -2 -2 -0 -1 -2 -1 -0 -0 0 -0 -3 -3 -3 -2 -2 2 -1 -2 -4 -1 -1 -2 -3 -4
-1 0 0 -0 1 0 0 6 3 0 -0 0 1 0 -1 -1 0 2 1 -0 -1 -1 -2 -1 -2 -1 2 -3 1 2 1 0 0 -0 -1 -2 1 -2 -4 -4 -5 -2 1 -2 -0 2 -2 -2 -1
Height
5825 5828 5829 5831 5837 5838 5839 5839 5839 5839 5843 5844 5846 5848 5850 5849 5849 5851 5850 5852 5853 5854 5856 5855 5855 5855 5854 5852 5851 5851 5850 5850 5851 5851 5851 5850 5849 5849 5849 5849 5847 5847 5846 5845 5844 5843 5841 5839 5838
5821 5824 5825 5827 5831 5832 5832 5834 5834 5834 5836 5838 5839 5843 5844 5845 5844 5842 5845 5845 5848 5849 5852 5852 5852 5851 5850 5849 5848 5848 5848 5848 5849 5849 5850 5849 5847 5847 5847 5847 5846 5846 5845 5844 5843 5841 5840 5837 5835
5818 5820 5822 5823 5825 5827 5826 5828 5828 5829 5833 5837 5832 5834 5837 5837 5839 5839 5839 5840 5842 5845 5849 5850 5849 5848 5847 5846 5846 5846 5846 5848 5848 5848 5847 5847 5846 5847 5847 5846 5845 5844 5843 5841 5839 5837 5836 5833 5831
5815 5818 5820 5820 5821 5821 5821 5823 5826 5828 5832 5831 5832 5828 5836 5835 5836 5832 5834 5836 5838 5842 5844 5846 5845 5844 5844 5844 5844 5845 5845 5846 5846 5845 5845 5845 5846 5846 5844 5842 5840 5839 5837 5836 5835 5833 5831 5829 5827
5812 5814 5817 5818 5818 5817 5817 5819 5824 5825 5828 5832 5831 5830 5828 5828 5827 5828 5830 5832 5837 5839 5841 5842 5841 5842 5843 5843 5843 5843 5844 5844 5844 5844 5843 5843 5843 5842 5840 5839 5838 5836 5835 5833 5831 5829 5827 5824 5822
5809 5812 5814 5814 5813 5815 5817 5821 5821 5823 5822 5823 5826 5826 5825 5823 5823 5824 5827 5831 5834 5837 5839 5840 5840 5841 5842 5841 5841 5842 5842 5843 5843 5842 5842 5841 5840 5839 5837 5835 5833 5832 5830 5828 5827 5825 5823 5821 5818
5807 5808 5810 5811 5812 5814 5816 5817 5816 5819 5818 5820 5820 5822 5826 5824 5823 5825 5826 5829 5834 5836 5837 5838 5839 5840 5840 5839 5841 5841 5841 5841 5840 5840 5839 5839 5837 5835 5833 5831 5830 5827 5825 5823 5822 5820 5818 5816 5814
5804 5806 5808 5807 5809 5813 5812 5813 5812 5812 5818 5819 5818 5820 5822 5825 5826 5828 5829 5830 5833 5835 5836 5836 5837 5837 5838 5838 5839 5838 5838 5838 5837 5837 5836 5835 5833 5830 5829 5827 5825 5822 5820 5818 5816 5814 5813 5810 5808
5801 5804 5806 5805 5806 5811 5812 5812 5811 5815 5815 5819 5819 5820 5822 5824 5825 5826 5827 5829 5832 5834 5834 5835 5835 5835 5836 5836 5835 5835 5835 5835 5834 5833 5832 5831 5829 5827 5825 5822 5820 5817 5815 5812 5811 5808 5805 5803 5801
5800 5801 5804 5805 5805 5808 5810 5813 5811 5813 5816 5816 5816 5820 5823 5824 5825 5826 5827 5829 5831 5831 5832 5833 5832 5833 5833 5832 5833 5832 5832 5830 5830 5828 5827 5826 5823 5821 5818 5816 5814 5812 5810 5808 5805 5803 5800 5797 5794
5797 5798 5804 5804 5805 5806 5809 5809 5810 5812 5816 5816 5817 5820 5823 5825 5825 5826 5827 5828 5828 5829 5829 5829 5829 5830 5830 5828 5827 5827 5826 5825 5824 5822 5822 5819 5817 5814 5811 5809 5808 5806 5804 5802 5799 5796 5793 5790 5788
5797 5799 5803 5804 5804 5806 5808 5812 5812 5814 5815 5816 5817 5818 5821 5823 5824 5825 5826 5827 5827 5826 5828 5828 5828 5828 5826 5825 5825 5824 5822 5820 5817 5816 5814 5812 5811 5808 5805 5803 5802 5800 5797 5795 5792 5789 5787 5785 5783
5797 5799 5801 5804 5803 5804 5809 5811 5811 5813 5814 5817 5818 5820 5821 5822 5824 5825 5825 5826 5826 5826 5826 5825 5826 5825 5824 5824 5823 5822 5819 5816 5812 5811 5809 5807 5803 5802 5799 5797 5795 5793 5790 5787 5784 5782 5779 5777 5775
5796 5799 5801 5803 5803 5807 5810 5810 5810 5812 5814 5816 5818 5819 5821 5823 5824 5823 5824 5824 5823 5824 5824 5825 5824 5823 5822 5822 5820 5818 5813 5811 5809 5807 5805 5800 5797 5794 5792 5791 5788 5785 5782 5780 5777 5774 5771 5768 5766
5796 5800 5802 5802 5804 5807 5809 5809 5810 5812 5814 5816 5818 5819 5820 5821 5822 5822 5822 5822 5822 5821 5822 5823 5821 5820 5819 5816 5816 5813 5807 5804 5804 5802 5798 5794 5791 5788 5785 5782 5780 5777 5774 5771 5768 5764 5761 5759 5756
5797 5799 5801 5802 5803 5805 5808 5809 5810 5812 5814 5816 5817 5819 5820 5821 5821 5821 5820 5820 5820 5819 5819 5819 5817 5816 5815 5813 5811 5809 5803 5799 5798 5793 5791 5788 5784 5781 5778 5774 5771 5767 5764 5761 5758 5754 5751 5748 5745
5797 5799 5801 5801 5802 5805 5808 5809 5811 5812 5815 5816 5817 5819 5820 5819 5819 5820 5819 5819 5819 5818 5818 5816 5814 5812 5810 5809 5800 5797 5794 5792 5788 5786 5784 5780 5776 5772 5768 5764 5760 5756 5752 5749 5746 5743 5740 5737 5733
5797 5797 5799 5800 5802 5805 5807 5810 5811 5811 5813 5814 5815 5816 5817 5817 5818 5817 5817 5817 5816 5815 5814 5813 5812 5808 5806 5802 5795 5791 5787 5783 5782 5779 5775 5771 5767 5762 5757 5753 5748 5744 5741 5738 5734 5731 5727 5722 5718
5794 5797 5798 5800 5802 5804 5806 5809 5811 5812 5812 5813 5814 5814 5813 5814 5814 5814 5813 5812 5812 5811 5810 5807 5805 5802 5798 5795 5790 5786 5781 5777 5773 5768 5764 5760 5755 5751 5746 5741 5737 5733 5729 5724 5719 5713 5708 5703 5699
5794 5796 5798 5800 5801 5804 5806 5808 5809 5811 5811 5811 5811 5811 5811 5811 5811 5809 5808 5808 5806 5804 5802 5800 5798 5794 5791 5787 5783 5778 5775 5771 5766 5761 5756 5752 5747 5742 5736 5731 5726 5720 5715 5710 5704 5698 5692 5685 5680
5793 5795 5798 5800 5801 5803 5805 5808 5808 5809 5809 5809 5808 5808 5807 5807 5806 5806 5804 5802 5800 5800 5799 5796 5792 5788 5785 5781 5777 5771 5766 5761 5757 5752 5747 5742 5737 5731 5725 5719 5713 5707 5701 5694 5687 5680 5673 5666 5659
5792 5795 5797 5798 5800 5802 5803 5805 5805 5806 5807 5806 5805 5804 5803 5803 5803 5801 5798 5797 5795 5793 5791 5787 5784 5780 5776 5771 5766 5762 5757 5752 5747 5742 5736 5731 5726 5720 5714 5708 5701 5694 5686 5678 5670 5662 5651 5642 5633
5791 5794 5795 5796 5798 5799 5801 5801 5802 5802 5803 5802 5801 5800 5799 5799 5798 5796 5793 5791 5789 5785 5783 5780 5776 5772 5766 5761 5757 5752 5748 5743 5738 5732 5727 5721 5715 5709 5702 5695 5687 5678 5668 5658 5648 5638 5629 5619 5608
5790 5791 5793 5794 5795 5796 5796 5796 5796 5797 5797 5796 5795 5794 5794 5794 5792 5789 5786 5785 5782 5780 5777 5773 5768 5763 5759 5755 5751 5746 5741 5735 5729 5722 5715 5709 5702 5695 5687 5678 5669 5658 5648 5638 5628 5618 5608 5597 5584
5787 5789 5790 5791 5791 5791 5791 5790 5792 5791 5790 5789 5789 5789 5789 5788 5786 5784 5782 5779 5776 5773 5769 5765 5761 5756 5751 5747 5743 5737 5731 5724 5717 5710 5703 5696 5688 5680 5671 5661 5651 5641 5631 5621 5610 5598 5583 5569 5554
5784 5785 5787 5786 5787 5788 5787 5786 5787 5786 5785 5784 5784 5784 5783 5783 5781 5779 5776 5773 5770 5767 5763 5759 5755 5750 5744 5738 5732 5726 5719 5712 5705 5697 5689 5682 5673 5665 5656 5646 5636 5626 5613 5600 5586 5571 5554 5539 5523
5781 5782 5784 5783 5783 5783 5783 5783 5782 5782 5781 5782 5782 5781 5780 5778 5777 5775 5772 5768 5765 5762 5757 5753 5748 5742 5736 5729 5723 5716 5708 5699 5691 5684 5677 5668 5660 5651 5641 5630 5618 5605 5591 5577 5561 5545 5528 5513 5500
5777 5780 5781 5781 5781 5781 5781 5781 5781 5781 5781 5780 5779 5778 5776 5774 5772 5769 5766 5763 5759 5755 5751 5745 5739 5733 5726 5718 5711 5703 5694 5687 5679 5672 5664 5655 5645 5635 5624 5612 5598 5584 5569 5554 5538 5521 5506 5493 5483
5776 5777 5778 5779 5779 5779 5780 5781 5779 5779 5778 5777 5776 5774 5772 5769 5766 5763 5759 5755 5750 5745 5740 5733 5727 5719 5713 5706 5699 5691 5683 5676 5668 5659 5650 5640 5629 5618 5606 5593 5580 5565 5548 5532 5516 5499 5486 5477 5470
5773 5775 5775 5776 5778 5777 5777 5778 5776 5775 5774 5772 5771 5769 5766 5763 5760 5756 5751 5745 5740 5734 5728 5722 5715 5709 5702 5694 5686 5679 5671 5662 5654 5645 5634 5623 5611 5599 5587 5574 5560 5545 5526 5509 5494 5481 5472 5466 5462